Вернуться в каталог

ONEWEB-0669

АктивенСвязьPO
NORAD 55828·PAYLOAD·🇬🇧 United Kingdom

Запущен Mar 9, 2023 с Cape Canaveral Space Force Station

Loading…

Ближайшие Пролёты (ближайшие 24 часа)

TLE

СвежийSource: CelesTrak SupGP

Эпоха: Sep 14, 2026, 15:59 UTC

1 55828C 23029AJ  26257.66647407 -.00002859  00000+0 -70390-2 0  2579
2 55828  87.9136 256.5915 0002335 101.8117  10.4688 13.20774223    18

Отслеживайте ONEWEB-0669 в реальном времени с AllMySat

Download on the App Store